Wind_Speed
42 43 44 45 46 48 48 49 49 48 47 48 48 48 49 49 50 51 52 52 52 52 52 52 51 50 48 47 46 45 44 42 41 39 38 37 36 36
43 44 44 46 47 48 49 49 50 49 48 48 48 48 50 51 52 52 52 53 52 53 52 52 50 48 46 45 44 43 42 41 39 38 37 36 36 36
44 45 45 46 47 48 49 50 50 49 49 48 48 49 50 51 51 52 52 52 52 52 52 51 49 46 45 43 42 41 40 39 38 37 36 36 35 34
45 45 46 47 48 48 49 50 49 49 49 48 47 49 50 50 51 51 51 51 51 51 50 49 46 44 43 41 40 40 39 37 37 36 36 35 34 32
46 46 47 47 48 48 49 48 48 49 49 48 47 48 49 50 50 50 50 50 50 49 48 46 44 42 41 39 38 38 37 36 36 35 34 33 32 31
47 47 48 48 48 48 47 47 48 48 47 47 47 48 48 48 48 48 48 49 49 47 45 43 41 40 38 37 37 36 36 35 35 34 33 32 31 30
48 47 47 48 48 47 47 47 47 47 46 47 48 48 47 48 48 48 48 47 45 42 41 40 38 37 36 36 35 35 34 34 33 32 31 30 29 28
47 47 47 46 46 46 46 47 47 46 46 47 47 47 47 48 48 47 46 44 42 39 38 37 36 35 35 34 34 34 33 32 32 30 28 27 26 25
46 46 46 46 46 46 47 47 47 46 47 46 46 46 46 46 46 45 44 42 40 37 36 35 35 34 34 33 33 33 32 31 29 27 25 24 24 23
46 45 44 44 45 46 46 46 45 45 45 45 45 44 45 45 44 44 42 39 37 36 35 33 33 33 33 33 31 31 30 29 27 25 24 24 23 22
44 44 44 44 44 45 45 44 44 43 43 43 43 43 43 43 42 41 39 37 36 35 34 33 33 33 32 31 30 29 28 26 25 24 24 23 22 20
43 43 43 44 43 44 44 42 42 41 41 41 42 42 42 41 40 38 36 36 35 34 33 32 32 31 29 28 28 27 25 24 24 23 22 21 19 18
42 42 42 42 42 43 42 41 41 40 40 40 40 40 39 38 37 36 35 34 33 32 31 30 29 29 28 26 25 25 23 23 23 22 21 19 17 17
41 41 42 41 41 41 41 40 39 39 39 38 38 37 36 35 34 34 33 32 31 30 29 28 28 28 27 26 25 24 23 22 22 20 19 18 17 15
40 41 40 40 41 40 39 38 38 37 36 36 34 34 33 33 32 31 30 29 29 28 27 26 26 26 26 25 24 22 21 21 20 19 17 16 15 12
37 38 38 39 39 38 37 37 36 35 33 33 32 31 31 30 29 29 28 27 26 25 24 24 23 23 23 22 22 20 20 19 17 16 15 14 12 10
35 35 35 36 36 36 35 34 33 32 31 31 30 30 28 28 27 27 27 26 24 22 21 21 21 20 20 21 20 18 17 16 15 15 14 12 11 10
34 34 33 34 34 33 32 31 30 30 29 29 28 27 26 26 25 25 25 24 21 20 19 19 19 19 19 19 18 17 16 15 14 13 13 11 9 9
33 32 32 31 31 29 28 28 27 27 26 25 25 25 24 23 23 23 23 21 19 18 17 18 18 18 18 17 16 16 14 13 13 12 11 9 7 7
33 32 31 30 28 27 26 25 24 24 23 23 23 22 22 21 22 21 21 19 17 16 16 16 17 17 18 17 16 14 13 12 11 10 9 8 7 7
32 31 30 29 27 26 25 24 23 22 21 20 20 20 20 20 20 20 19 17 16 15 15 16 17 17 16 15 14 12 11 11 10 10 8 8 7 6
29 29 28 27 26 25 23 22 21 20 19 19 19 19 19 19 18 17 16 14 14 14 14 15 15 15 14 13 12 11 10 10 10 9 8 8 7 6
26 26 25 24 23 22 21 20 18 17 17 18 18 17 17 16 15 14 14 13 13 13 14 14 14 14 13 12 11 11 10 10 9 8 8 7 7 7
Wind_Direction
292 294 296 298 299 302 304 305 306 307 308 307 307 307 308 309 310 310 310 310 310 310 310 309 309 308 306 305 304 304 304 304 303 302 301 300 299 297
292 294 296 297 299 302 304 305 306 307 308 309 308 307 309 310 310 311 311 311 310 310 310 310 310 308 307 306 306 306 305 305 303 302 302 301 301 299
292 295 296 297 299 301 303 304 305 306 307 309 309 309 310 311 311 312 312 312 312 312 312 311 310 309 308 308 307 306 307 306 304 302 301 301 301 300
292 294 296 298 299 300 302 304 305 306 307 309 309 309 310 311 312 313 313 313 313 314 313 312 311 309 309 309 308 307 307 306 305 302 301 300 300 299
291 293 295 297 298 300 301 303 304 306 307 308 309 309 310 311 312 314 315 315 316 315 314 314 312 311 311 311 310 310 309 307 305 303 301 300 299 298
290 292 294 296 297 299 300 302 303 305 306 307 309 310 311 312 313 315 316 317 317 316 316 316 315 315 315 314 314 314 312 310 308 305 302 300 298 297
289 291 293 295 296 298 300 301 303 304 305 307 308 310 311 312 313 314 317 318 318 317 316 317 316 316 316 317 317 317 315 313 311 308 305 302 300 299
288 290 291 294 296 297 300 301 302 303 305 306 308 310 311 312 313 315 317 319 318 317 318 319 318 318 318 318 319 319 317 316 315 313 309 306 304 301
288 289 291 293 294 295 298 300 301 302 304 306 307 310 311 313 315 316 318 318 319 318 319 321 322 321 320 320 320 321 321 321 320 318 316 313 309 305
287 288 291 293 294 295 297 298 300 302 304 305 307 309 311 312 314 316 318 319 320 321 321 322 322 323 322 322 321 322 322 322 322 322 320 318 314 310
286 288 290 292 295 296 298 298 299 301 303 305 307 309 310 312 314 316 317 318 320 321 322 322 322 323 324 324 323 323 322 322 324 324 323 320 317 314
286 287 289 291 293 296 297 297 299 301 302 304 306 308 309 311 314 315 316 318 320 321 322 323 325 326 326 326 325 326 327 326 326 325 324 323 321 319
285 287 289 291 292 295 296 296 298 300 301 303 305 307 308 310 312 314 316 318 320 321 322 324 326 327 329 331 331 329 329 329 329 328 327 326 324 322
286 288 290 291 293 294 294 295 297 299 301 303 304 305 307 309 311 314 317 319 320 321 322 323 326 328 330 331 333 334 334 333 333 333 333 331 329 328
287 288 290 291 293 295 294 294 296 298 300 302 304 305 307 309 311 315 318 319 319 321 322 324 325 328 331 332 334 335 337 338 337 338 339 338 337 337
287 289 290 292 294 295 294 295 295 297 298 300 301 304 308 310 313 316 318 318 318 319 322 324 327 330 333 334 335 336 338 339 340 344 348 350 353 355
285 288 291 293 295 295 294 295 297 297 297 298 300 303 307 310 312 315 317 318 317 318 322 326 331 333 335 336 337 337 339 341 343 346 352 357 3 10
284 287 290 293 295 294 293 294 296 297 298 299 301 303 306 309 312 316 318 318 318 319 323 328 331 333 335 337 338 339 341 344 347 350 355 0 10 18
285 288 291 293 295 294 293 295 295 296 298 299 300 303 306 309 314 318 320 319 319 321 324 329 334 336 338 339 340 340 341 345 349 352 356 3 14 24
285 287 290 292 293 292 292 293 295 296 297 299 301 303 306 310 313 317 321 322 322 322 324 328 331 335 337 339 341 343 344 349 354 0 9 22 29 34
283 285 287 289 289 289 290 291 293 295 296 297 299 302 306 309 312 316 319 321 324 326 328 330 332 334 337 341 345 350 352 354 357 3 13 27 37 44
281 284 286 287 287 287 288 289 291 293 294 294 296 300 304 307 311 316 319 323 327 328 332 335 338 340 341 344 349 354 359 3 6 10 18 31 41 50
280 283 285 285 285 286 286 286 289 292 292 293 297 300 304 307 312 317 320 322 325 329 333 336 338 340 343 348 353 359 4 9 14 23 29 36 42 47
Height
5732 5729 5726 5722 5718 5713 5709 5704 5699 5696 5692 5685 5678 5670 5664 5657 5651 5645 5638 5630 5623 5616 5609 5602 5595 5588 5581 5575 5569 5564 5558 5553 5548 5544 5540 5536 5533 5529
5723 5720 5717 5713 5709 5704 5699 5694 5688 5683 5679 5674 5667 5660 5654 5647 5640 5633 5626 5619 5611 5604 5597 5590 5583 5576 5570 5564 5558 5553 5547 5543 5538 5534 5530 5526 5523 5519
5714 5711 5707 5703 5699 5694 5689 5684 5679 5673 5669 5664 5656 5650 5643 5637 5630 5622 5615 5608 5600 5592 5585 5578 5571 5565 5559 5553 5547 5542 5537 5532 5528 5524 5521 5517 5513 5510
5705 5701 5697 5693 5689 5684 5679 5674 5669 5663 5658 5653 5647 5640 5633 5627 5620 5613 5605 5597 5589 5582 5574 5567 5560 5554 5548 5543 5537 5532 5527 5523 5519 5515 5511 5508 5505 5501
5695 5691 5688 5683 5679 5674 5669 5664 5659 5653 5647 5642 5637 5630 5624 5617 5611 5603 5595 5587 5579 5571 5564 5557 5551 5545 5539 5534 5528 5523 5518 5514 5509 5505 5502 5498 5495 5493
5684 5681 5677 5673 5669 5664 5659 5654 5649 5644 5638 5633 5627 5621 5615 5608 5601 5595 5588 5579 5570 5562 5555 5549 5543 5537 5531 5526 5521 5515 5510 5505 5501 5496 5493 5490 5487 5485
5673 5670 5666 5662 5658 5653 5649 5644 5639 5634 5629 5624 5618 5612 5606 5600 5593 5585 5578 5571 5563 5555 5548 5542 5536 5531 5525 5519 5513 5508 5503 5498 5493 5489 5485 5482 5479 5477
5663 5659 5656 5652 5648 5643 5638 5633 5628 5624 5619 5614 5609 5603 5597 5590 5584 5576 5569 5563 5557 5551 5543 5536 5530 5524 5519 5513 5507 5502 5496 5491 5487 5482 5478 5475 5472 5470
5651 5649 5645 5641 5638 5634 5629 5624 5619 5614 5609 5605 5599 5594 5588 5582 5576 5570 5562 5554 5548 5542 5536 5531 5524 5518 5512 5507 5501 5496 5490 5485 5481 5476 5473 5469 5466 5464
5640 5638 5635 5631 5627 5623 5619 5614 5609 5605 5600 5595 5591 5585 5578 5572 5567 5561 5554 5548 5542 5535 5530 5525 5519 5513 5507 5501 5496 5490 5485 5481 5476 5472 5468 5465 5461 5459
5629 5627 5624 5621 5617 5613 5610 5606 5601 5596 5591 5586 5581 5576 5570 5564 5559 5554 5548 5542 5537 5531 5525 5519 5514 5509 5503 5497 5491 5485 5480 5476 5472 5468 5464 5460 5457 5454
5619 5616 5613 5610 5606 5603 5599 5596 5592 5588 5583 5578 5573 5568 5562 5557 5551 5546 5541 5536 5531 5526 5520 5514 5509 5504 5500 5494 5487 5482 5477 5472 5469 5465 5460 5457 5453 5451
5608 5606 5603 5599 5596 5593 5589 5586 5582 5578 5574 5570 5566 5560 5555 5550 5545 5540 5535 5530 5525 5519 5514 5509 5504 5499 5494 5490 5485 5479 5474 5470 5465 5461 5457 5454 5451 5448
5598 5595 5592 5589 5586 5582 5579 5576 5573 5569 5566 5562 5558 5553 5549 5544 5539 5534 5529 5524 5519 5514 5509 5504 5500 5495 5491 5486 5482 5477 5472 5467 5463 5459 5455 5452 5449 5446
5587 5584 5582 5579 5576 5573 5570 5567 5564 5561 5557 5554 5550 5546 5542 5538 5533 5529 5524 5519 5515 5510 5505 5501 5496 5492 5487 5483 5479 5475 5471 5467 5462 5458 5455 5451 5448 5445
5577 5575 5572 5569 5567 5564 5561 5558 5555 5552 5549 5546 5543 5540 5536 5532 5528 5524 5519 5515 5511 5506 5502 5497 5493 5489 5485 5481 5476 5473 5469 5466 5462 5458 5454 5451 5448 5445
5568 5566 5563 5561 5558 5555 5553 5550 5547 5545 5542 5539 5536 5534 5531 5527 5523 5519 5515 5510 5506 5503 5499 5495 5491 5487 5483 5479 5475 5471 5468 5464 5461 5458 5455 5452 5449 5446
5559 5557 5555 5553 5550 5548 5545 5543 5541 5538 5536 5533 5531 5528 5525 5522 5519 5514 5510 5506 5503 5499 5496 5493 5489 5486 5483 5479 5474 5470 5467 5464 5461 5458 5455 5452 5450 5448
5550 5549 5547 5545 5542 5540 5538 5536 5534 5532 5530 5528 5525 5523 5520 5517 5514 5511 5507 5503 5500 5497 5494 5490 5487 5484 5481 5478 5474 5470 5466 5463 5461 5458 5456 5453 5451 5450
5542 5541 5539 5537 5535 5534 5532 5530 5528 5526 5524 5522 5520 5518 5516 5513 5510 5507 5504 5501 5497 5495 5492 5489 5486 5482 5479 5476 5472 5469 5466 5463 5461 5459 5456 5454 5452 5451
5534 5533 5531 5530 5528 5527 5526 5524 5522 5521 5519 5517 5516 5513 5511 5509 5507 5504 5501 5498 5495 5493 5490 5487 5484 5481 5477 5475 5472 5469 5466 5463 5461 5459 5457 5456 5454 5453
5525 5525 5524 5523 5522 5521 5520 5518 5517 5516 5514 5513 5511 5509 5507 5505 5503 5501 5499 5496 5494 5491 5488 5486 5482 5480 5477 5474 5471 5469 5466 5464 5462 5459 5458 5457 5456 5455
5518 5517 5517 5516 5515 5514 5514 5513 5512 5511 5510 5508 5507 5506 5504 5502 5500 5498 5496 5494 5492 5489 5487 5484 5482 5479 5476 5474 5471 5469 5467 5465 5463 5461 5460 5458 5457 5457